Time,TemperatureF,DewpointF,PressureIn,WindDirection,WindDirectionDegrees,WindSpeedMPH,WindSpeedGustMPH,Humidity,HourlyPrecipIn,Conditions,Clouds,dailyrainin,SoftwareType,DateUTC
2013-11-28 00:02:00,28.8,17.5,30.36,ESE,113,0.7,0.7,62,0.00,,,0.00,WUHU216HW,2013-11-28 06:02:00,
2013-11-28 00:17:00,28.8,17.5,30.36,ESE,113,0.7,0.7,62,2.59,,,0.00,WUHU216HW,2013-11-28 06:17:00,
2013-11-28 00:35:00,29.0,17.2,30.36,ESE,113,0.0,0.0,61,2.59,,,0.00,WUHU216HW,2013-11-28 06:35:00,
2013-11-28 00:40:00,29.0,17.2,30.36,SE,135,0.7,0.7,61,2.59,,,0.00,WUHU216HW,2013-11-28 06:40:00,
2013-11-28 00:45:00,28.8,17.1,30.36,ESE,113,1.8,1.8,61,2.59,,,0.00,WUHU216HW,2013-11-28 06:45:00,
2013-11-28 00:51:00,27.4,16.0,30.35,East,90,2.5,2.5,62,2.59,,,0.00,WUHU216HW,2013-11-28 06:51:00,
2013-11-28 00:57:00,26.8,15.8,30.35,ESE,113,1.6,2.5,63,2.59,,,0.00,WUHU216HW,2013-11-28 06:57:00,
2013-11-28 01:03:00,26.6,16.7,30.35,ESE,113,1.6,1.6,66,0.00,,,0.00,WUHU216HW,2013-11-28 07:03:00,
2013-11-28 01:09:00,26.6,16.4,30.35,ESE,113,0.4,1.6,65,0.00,,,0.00,WUHU216HW,2013-11-28 07:09:00,
2013-11-28 01:14:00,27.0,16.7,30.35,ESE,113,0.4,0.4,65,0.00,,,0.00,WUHU216HW,2013-11-28 07:14:00,
2013-11-28 01:19:00,27.2,16.6,30.35,ESE,113,0.0,0.4,64,0.00,,,0.00,WUHU216HW,2013-11-28 07:19:00,
2013-11-28 01:27:00,26.8,16.2,30.34,ESE,113,1.1,1.1,64,0.00,,,0.00,WUHU216HW,2013-11-28 07:27:00,
2013-11-28 01:34:00,27.0,16.4,30.34,East,90,1.1,1.1,64,0.00,,,0.00,WUHU216HW,2013-11-28 07:34:00,
2013-11-28 01:40:00,26.6,16.7,30.34,ESE,113,0.7,1.1,66,0.00,,,0.00,WUHU216HW,2013-11-28 07:40:00,
2013-11-28 01:46:00,26.3,16.4,30.34,East,90,0.0,0.9,66,0.00,,,0.00,WUHU216HW,2013-11-28 07:46:00,
2013-11-28 01:53:00,25.9,17.1,30.34,East,90,1.8,1.8,69,0.00,,,0.00,WUHU216HW,2013-11-28 07:53:00,
2013-11-28 01:58:00,25.7,17.3,30.34,East,90,2.0,2.0,70,0.00,,,0.00,WUHU216HW,2013-11-28 07:58:00,
2013-11-28 02:03:00,25.7,16.9,30.34,East,90,2.0,2.0,69,0.00,,,0.00,WUHU216HW,2013-11-28 08:03:00,
2013-11-28 02:08:00,25.6,17.1,30.34,ESE,113,2.5,2.5,70,0.00,,,0.00,WUHU216HW,2013-11-28 08:08:00,
2013-11-28 02:14:00,25.7,17.3,30.34,East,90,1.6,2.5,70,0.00,,,0.00,WUHU216HW,2013-11-28 08:14:00,
2013-11-28 02:19:00,25.6,17.1,30.34,East,90,0.7,2.0,70,0.00,,,0.00,WUHU216HW,2013-11-28 08:19:00,
2013-11-28 02:25:00,25.2,16.4,30.34,East,90,0.9,2.0,69,0.00,,,0.00,WUHU216HW,2013-11-28 08:25:00,
2013-11-28 02:31:00,25.4,16.6,30.34,ESE,113,0.4,1.1,69,0.00,,,0.00,WUHU216HW,2013-11-28 08:31:00,
2013-11-28 02:37:00,25.7,16.6,30.35,ESE,113,0.4,0.4,68,0.00,,,0.00,WUHU216HW,2013-11-28 08:37:00,
2013-11-28 02:42:00,25.7,16.6,30.34,ESE,113,0.2,0.4,68,0.00,,,0.00,WUHU216HW,2013-11-28 08:42:00,
2013-11-28 02:49:00,25.9,16.7,30.34,ESE,113,0.0,0.2,68,0.00,,,0.00,WUHU216HW,2013-11-28 08:49:00,
2013-11-28 02:56:00,25.6,16.4,30.34,ESE,113,1.1,1.1,68,0.00,,,0.00,WUHU216HW,2013-11-28 08:56:00,
2013-11-28 03:29:00,26.3,17.1,30.34,ESE,113,0.0,0.0,68,0.00,,,0.00,WUHU216HW,2013-11-28 09:29:00,
2013-11-28 03:34:00,26.3,16.7,30.34,ESE,113,0.0,0.0,67,0.00,,,0.00,WUHU216HW,2013-11-28 09:34:00,
2013-11-28 03:39:00,26.3,17.1,30.34,ESE,113,0.0,0.0,68,0.00,,,0.00,WUHU216HW,2013-11-28 09:39:00,
2013-11-28 03:44:00,26.3,16.7,30.34,ESE,113,0.0,0.0,67,0.00,,,0.00,WUHU216HW,2013-11-28 09:44:00,
2013-11-28 03:53:00,26.1,16.9,30.34,ESE,113,0.0,0.0,68,0.00,,,0.00,WUHU216HW,2013-11-28 09:53:00,
2013-11-28 04:04:00,26.5,17.3,30.35,SSE,158,0.0,0.0,68,0.00,,,0.00,WUHU216HW,2013-11-28 10:04:00,
2013-11-28 04:10:00,25.9,16.4,30.34,SSE,158,0.0,0.0,67,0.00,,,0.00,WUHU216HW,2013-11-28 10:10:00,
2013-11-28 04:15:00,25.4,16.2,30.34,SE,135,0.2,0.4,68,0.00,,,0.00,WUHU216HW,2013-11-28 10:15:00,
2013-11-28 04:25:00,25.4,16.2,30.34,SE,135,0.0,0.4,68,0.00,,,0.00,WUHU216HW,2013-11-28 10:25:00,
2013-11-28 04:40:00,25.7,16.9,30.34,SE,135,0.0,0.0,69,0.00,,,0.00,WUHU216HW,2013-11-28 10:40:00,
2013-11-28 04:46:00,25.0,16.2,30.35,ESE,113,0.4,0.4,69,0.00,,,0.00,WUHU216HW,2013-11-28 10:46:00,
2013-11-28 04:51:00,24.8,16.0,30.35,ESE,113,0.0,0.4,69,0.00,,,0.00,WUHU216HW,2013-11-28 10:51:00,
2013-11-28 04:58:00,25.0,16.6,30.35,ESE,113,0.0,0.4,70,0.00,,,0.00,WUHU216HW,2013-11-28 10:58:00,
2013-11-28 05:09:00,25.4,16.9,30.35,ESE,113,0.4,0.4,70,0.00,,,0.00,WUHU216HW,2013-11-28 11:09:00,
2013-11-28 05:14:00,25.4,16.6,30.35,ESE,113,0.4,0.4,69,0.00,,,0.00,WUHU216HW,2013-11-28 11:14:00,
2013-11-28 05:22:00,24.8,16.0,30.35,ESE,113,0.4,0.4,69,0.00,,,0.00,WUHU216HW,2013-11-28 11:22:00,
2013-11-28 05:25:00,24.8,16.4,30.35,ESE,113,0.2,0.4,70,0.00,,,0.00,WUHU216HW,2013-11-28 11:25:00,
2013-11-28 05:39:00,25.6,17.1,30.35,SE,135,0.0,0.0,70,0.00,,,0.00,WUHU216HW,2013-11-28 11:39:00,
2013-11-28 05:44:00,25.7,17.3,30.35,SE,135,0.0,0.0,70,0.00,,,0.00,WUHU216HW,2013-11-28 11:44:00,
2013-11-28 05:52:00,25.4,16.9,30.35,SE,135,0.0,0.0,70,0.00,,,0.00,WUHU216HW,2013-11-28 11:52:00,
2013-11-28 05:57:00,25.4,16.9,30.35,SE,135,0.0,0.0,70,0.00,,,0.00,WUHU216HW,2013-11-28 11:57:00,
2013-11-28 06:02:00,25.6,17.1,30.36,SE,135,0.0,0.0,70,0.00,,,0.00,WUHU216HW,2013-11-28 12:02:00,
2013-11-28 06:09:00,25.7,17.3,30.36,SE,135,0.0,0.0,70,0.00,,,0.00,WUHU216HW,2013-11-28 12:09:00,
2013-11-28 06:14:00,26.1,17.6,30.36,SE,135,0.0,0.0,70,0.00,,,0.00,WUHU216HW,2013-11-28 12:14:00,
2013-11-28 06:22:00,25.7,17.3,30.36,SE,135,0.0,0.0,70,0.00,,,0.00,WUHU216HW,2013-11-28 12:22:00,
2013-11-28 06:27:00,25.9,17.5,30.36,SE,135,0.0,0.0,70,0.00,,,0.00,WUHU216HW,2013-11-28 12:27:00,
2013-11-28 06:35:00,25.6,17.1,30.36,SE,135,0.0,0.0,70,0.00,,,0.00,WUHU216HW,2013-11-28 12:35:00,
2013-11-28 06:40:00,26.1,17.6,30.36,SE,135,0.0,0.0,70,0.00,,,0.00,WUHU216HW,2013-11-28 12:40:00,
2013-11-28 06:46:00,26.3,17.8,30.36,SSE,158,0.0,0.0,70,0.00,,,0.00,WUHU216HW,2013-11-28 12:46:00,
2013-11-28 06:52:00,26.3,17.8,30.37,SSE,158,0.0,0.0,70,0.00,,,0.00,WUHU216HW,2013-11-28 12:52:00,
2013-11-28 06:59:00,26.3,17.8,30.37,South,180,0.0,0.0,70,0.00,,,0.00,WUHU216HW,2013-11-28 12:59:00,
2013-11-28 07:06:00,26.3,17.8,30.37,South,180,0.0,0.0,70,0.00,,,0.00,WUHU216HW,2013-11-28 13:06:00,
2013-11-28 07:12:00,26.3,17.8,30.37,South,180,0.0,0.0,70,0.00,,,0.00,WUHU216HW,2013-11-28 13:12:00,
2013-11-28 07:19:00,26.3,17.8,30.38,South,180,0.0,0.0,70,0.00,,,0.00,WUHU216HW,2013-11-28 13:19:00,
2013-11-28 07:42:00,27.0,18.5,30.38,South,180,0.0,0.0,70,0.00,,,0.00,WUHU216HW,2013-11-28 13:42:00,
2013-11-28 07:51:00,27.5,19.1,30.38,South,180,0.0,0.0,70,0.00,,,0.00,WUHU216HW,2013-11-28 13:51:00,
2013-11-28 08:02:00,27.7,19.5,30.38,ESE,113,0.4,0.4,71,0.00,,,0.00,WUHU216HW,2013-11-28 14:02:00,
2013-11-28 08:18:00,28.1,20.9,30.38,ESE,113,0.4,0.4,74,0.00,,,0.00,WUHU216HW,2013-11-28 14:18:00,
2013-11-28 08:22:00,28.8,21.3,30.38,SE,135,0.0,0.4,73,0.00,,,0.00,WUHU216HW,2013-11-28 14:22:00,
2013-11-28 08:37:00,29.7,22.1,30.39,SE,135,0.0,0.0,73,0.00,,,0.00,WUHU216HW,2013-11-28 14:37:00,
2013-11-28 08:45:00,30.4,22.8,30.39,SE,135,1.8,1.8,73,0.00,,,0.00,WUHU216HW,2013-11-28 14:45:00,